#timestamp,LO_Frequency,Hit,StdDev 
1654675215.8,286046998.6,N
1654675235.6,286047000.6,N
1654675255.5,286047002.3,N
1654675275.3,286047002.5,N
1654675295.1,286047004.0,N
1654675315.9,286047001.6,N
1654675335.7,286047001.8,N
1654675355.5,286047001.8,N
1654675375.4,286047002.3,N
1654675395.2,286047002.3,N
1654675415.1,286047002.2,N
1654675416.0,286047002.2,N
1654675435.8,286047001.7,N
1654675455.6,286047001.3,N
1654675475.5,286047004.3,N
1654675495.3,286047004.1,N
1654675515.1,286047003.5,N
1654675535.9,286047005.2,N
1654675555.7,286047005.0,N
1654675575.6,286047004.8,N
1654675595.4,286047004.5,N
1654675615.2,286047005.0,N
1654675635.1,286047004.7,N
1654675636.0,286047004.7,N
1654675655.8,286047005.4,N
1654675675.7,286047005.5,N
1654675695.5,286047005.6,N
1654675715.3,286047005.9,N
1654675735.2,286047003.2,N
1654675755.9,286047003.9,N
1654675775.7,286047003.8,N
1654675795.6,286047004.3,N
1654675815.4,286047004.4,Y
1654675835.3,286046998.7,P
1654675855.1,286046999.3,N
1654675856.0,286046999.3,N
1654675875.8,286046998.2,N
1654675895.7,286047001.1,N
1654675915.5,286046998.9,N
1654675935.3,286046999.6,N
1654675955.2,286046996.5,N
1654675975.0,286046998.9,N
1654675975.9,286046998.9,N
1654675995.8,286046998.8,N
1654676015.6,286046998.6,N
1654676035.4,286046998.2,N
1654676055.3,286046998.3,N
1654676075.1,286046998.2,N
1654676095.8,286047000.9,N
1654676115.7,286046998.2,N
1654676135.5,286046998.3,N
1654676155.4,286046998.1,N
1654676175.2,286047001.0,N
1654676195.0,286047000.0,N
1654676195.9,286047000.0,N
1654676215.8,286047001.2,N
1654676235.6,286047000.7,N
1654676255.4,286046999.9,N
1654676275.3,286047000.9,N
1654676295.1,286047000.3,N
1654676315.9,286047000.3,N
1654676335.7,286047000.6,N
1654676355.5,286047000.6,N
1654676375.4,286046998.2,N
1654676395.2,286046998.1,N
1654676415.0,286047001.1,N
1654676415.9,286047001.1,N
1654676435.8,286047000.6,N
1654676455.6,286047000.8,N
1654676475.5,286046998.2,N
1654676495.3,286047002.4,N
1654676515.1,286047003.0,N
1654676535.9,286047004.2,Y
1654676555.7,286047004.2,P
1654676575.6,286047001.4,N
1654676595.4,286047001.4,N
1654676615.2,286047003.7,N
1654676635.1,286047005.5,Y
1654676636.0,286047005.5,P
1654676655.8,286047001.7,N
1654676675.6,286047004.4,N
1654676695.5,286047003.9,N
1654676715.3,286047004.4,Y
1654676735.2,286046998.1,P
1654676755.9,286047000.7,N
1654676775.7,286046998.4,N
1654676795.6,286046998.4,N
1654676815.4,286046998.3,N
1654676835.2,286046996.5,N
1654676855.1,286046996.5,N
1654676856.0,286046996.5,N
1654676875.8,286046997.6,N
1654676895.7,286046995.3,N
1654676915.5,286046995.2,N
1654676935.3,286046995.4,N
1654676955.2,286046997.8,N
1654676975.0,286046994.9,N
1654676975.9,286046994.9,N
1654676995.8,286046997.6,N
1654677015.6,286046995.0,N
1654677035.4,286046995.3,N
1654677055.3,286046997.5,N
1654677075.1,286046997.5,N
1654677095.8,286046995.3,N
1654677115.7,286046997.2,N
1654677135.5,286046997.5,N
1654677155.4,286046997.2,N
1654677175.2,286046997.4,N
1654677195.0,286046997.2,N
1654677195.9,286046997.2,N
1654677215.8,286046997.2,N
1654677235.6,286046997.3,N
1654677255.4,286046997.5,N
1654677275.3,286046996.2,N
1654677295.1,286046995.8,Y
1654677315.9,286046996.5,P
1654677335.7,286046999.3,P
1654677355.5,286046998.3,N
1654677375.4,286046998.6,N
1654677395.2,286047001.2,N
1654677415.0,286046998.3,N
1654677416.0,286046998.3,N
1654677435.8,286046998.1,N
1654677455.6,286046998.8,N
1654677475.5,286046998.7,N
1654677495.3,286046998.6,N
1654677515.1,286046998.8,N
1654677535.9,286046999.0,N
1654677555.7,286046998.4,N
1654677575.6,286046998.5,N
1654677595.4,286047000.8,N
1654677615.2,286046998.2,N
1654677635.1,286046999.3,N
1654677636.0,286046999.3,N
1654677655.8,286046998.9,N
1654677675.6,286046998.5,N
1654677695.5,286046998.3,N
1654677715.3,286046998.8,N
1654677735.2,286047001.2,N
1654677755.9,286047000.5,N
1654677775.7,286047000.4,N
1654677795.6,286047000.1,N
1654677815.4,286046999.8,N
1654677835.2,286047000.2,N
1654677855.1,286047000.3,N
1654677856.0,286047000.3,N
1654677875.8,286046999.9,N
1654677895.7,286047000.3,N
1654677915.5,286046999.9,N
1654677935.3,286046999.9,N
1654677955.2,286047000.0,N
1654677975.0,286047002.8,Y
1654677975.9,286047002.8,P
1654677995.7,286047001.0,N
1654678015.6,286047000.6,N
1654678035.4,286047000.4,N
1654678055.3,286047000.9,N
1654678075.1,286047000.5,N
1654678076.0,286047000.5,N
1654678095.8,286047000.9,N
1654678115.7,286047000.1,N
1654678135.5,286047000.7,N
1654678155.3,286047000.5,N
1654678175.2,286046999.9,N
1654678195.0,286047000.0,N
1654678195.9,286047000.0,N
1654678215.8,286047000.6,N
1654678235.6,286047000.0,N
1654678255.4,286047001.2,N
1654678275.3,286047000.3,N
1654678295.1,286047000.9,N
1654678315.9,286047001.1,N
1654678335.7,286047000.3,N
1654678355.5,286046999.9,N
1654678375.4,286047000.2,N
1654678395.2,286047000.0,N
1654678415.0,286047000.4,N
1654678415.9,286047000.4,N
1654678435.8,286047001.0,N
1654678455.6,286047000.3,N
1654678475.5,286047000.6,N
1654678495.3,286047000.8,N
1654678515.1,286047000.6,N
1654678535.9,286047002.8,Y
1654678555.7,286047001.1,P
1654678575.5,286047000.7,N
1654678595.4,286047001.2,P
1654678615.2,286047000.9,N
1654678635.1,286047001.0,Y
1654678636.0,286047001.0,P
1654678655.8,286046998.8,P
1654678675.6,286046998.4,N
1654678695.5,286047001.2,N
1654678715.3,286046998.5,N
1654678735.2,286047000.7,N
1654678755.9,286046998.5,N
1654678775.7,286046998.5,N
1654678795.6,286046998.9,N
